Location: Newark
(44.9486°N, 4.8961°E)
Time: 07:41:46
(UTC+00:00)

ISS - Pass Details

Date: 25 July 2019
Orbit: 410 x 421 km, 51.6° (Epoch: 24 August)

Event Time Altitude Azimuth Distance (km) Brightness Sun altitude
Rises 23:03:56 0° 300° (WNW) 2,370 0.6 -24.8°
Reaches altitude 10° 23:06:03 10° 301° (WNW) 1,501 -0.5 -24.8°
Enters shadow 23:07:30 24° 303° (WNW) 926 -1.6 -24.9°
